Time,TemperatureF,DewpointF,PressureIn,WindDirection,WindDirectionDegrees,WindSpeedMPH,WindSpeedGustMPH,Humidity,HourlyPrecipIn,Conditions,Clouds,dailyrainin,SoftwareType,DateUTC
2013-07-22 00:05:00,70.7,69.8,29.80,SSE,157,5.8,-999.0,97,-99.99,,,0.00,Acu-Link.com,2013-07-22 05:05:00,
2013-07-22 00:20:00,70.5,69.6,29.81,SSE,157,5.8,-999.0,97,-99.99,,,0.00,Acu-Link.com,2013-07-22 05:20:00,
2013-07-22 00:35:00,70.3,69.4,29.80,South,180,5.8,-999.0,97,-99.99,,,0.00,Acu-Link.com,2013-07-22 05:35:00,
2013-07-22 00:50:00,70.0,69.4,29.80,South,180,7.3,-999.0,98,-99.99,,,0.00,Acu-Link.com,2013-07-22 05:50:00,
2013-07-22 01:05:00,69.8,69.2,29.78,SSE,157,6.8,-999.0,98,-99.99,,,0.00,Acu-Link.com,2013-07-22 06:05:00,
2013-07-22 01:21:00,69.6,69.0,29.79,SSE,157,7.8,-999.0,98,-99.99,,,0.00,Acu-Link.com,2013-07-22 06:21:00,
2013-07-22 01:36:00,69.4,68.8,29.78,South,180,6.8,-999.0,98,-99.99,,,0.00,Acu-Link.com,2013-07-22 06:36:00,
2013-07-22 01:51:00,69.3,68.7,29.79,South,180,7.8,-999.0,98,-99.99,,,0.00,Acu-Link.com,2013-07-22 06:51:00,
2013-07-22 02:07:00,69.3,68.7,29.78,South,180,7.3,-999.0,98,-99.99,,,0.00,Acu-Link.com,2013-07-22 07:07:00,
2013-07-22 02:22:00,69.4,68.5,29.78,SSE,157,11.4,-999.0,97,-99.99,,,0.00,Acu-Link.com,2013-07-22 07:22:00,
2013-07-22 02:37:00,69.1,68.2,29.77,SSE,157,11.9,-999.0,97,-99.99,,,0.00,Acu-Link.com,2013-07-22 07:37:00,
2013-07-22 02:52:00,68.9,68.3,29.77,SSE,157,7.3,-999.0,98,-99.99,,,0.00,Acu-Link.com,2013-07-22 07:52:00,
2013-07-22 03:07:00,68.7,68.1,29.77,SSE,157,9.9,-999.0,98,-99.99,,,0.00,Acu-Link.com,2013-07-22 08:07:00,
2013-07-22 03:22:00,68.7,68.1,29.77,SE,135,8.3,-999.0,98,-99.99,,,0.00,Acu-Link.com,2013-07-22 08:22:00,
2013-07-22 03:38:00,68.4,67.8,29.76,SSE,157,7.8,-999.0,98,-99.99,,,0.00,Acu-Link.com,2013-07-22 08:38:00,
2013-07-22 03:53:00,68.2,67.6,29.76,South,180,8.3,-999.0,98,-99.99,,,0.00,Acu-Link.com,2013-07-22 08:53:00,
2013-07-22 04:08:00,68.0,67.4,29.75,SSE,157,9.9,-999.0,98,-99.99,,,0.00,Acu-Link.com,2013-07-22 09:08:00,
2013-07-22 04:23:00,68.0,67.4,29.75,SW,225,6.8,-999.0,98,-99.99,,,0.00,Acu-Link.com,2013-07-22 09:23:00,
2013-07-22 04:38:00,67.8,67.2,29.76,SW,225,6.3,-999.0,98,-99.99,,,0.00,Acu-Link.com,2013-07-22 09:38:00,
2013-07-22 04:54:00,67.6,67.0,29.76,South,180,6.3,-999.0,98,-99.99,,,0.00,Acu-Link.com,2013-07-22 09:54:00,
2013-07-22 05:09:00,68.0,67.4,29.74,SSE,157,6.8,-999.0,98,-99.99,,,0.00,Acu-Link.com,2013-07-22 10:09:00,
2013-07-22 05:24:00,68.0,67.4,29.74,SSW,202,8.3,-999.0,98,-99.99,,,0.00,Acu-Link.com,2013-07-22 10:24:00,
2013-07-22 05:39:00,68.2,67.6,29.74,South,180,7.8,-999.0,98,-99.99,,,0.00,Acu-Link.com,2013-07-22 10:39:00,
2013-07-22 05:54:00,68.4,67.8,29.74,SW,225,7.8,-999.0,98,-99.99,,,0.00,Acu-Link.com,2013-07-22 10:54:00,
2013-07-22 06:09:00,68.4,67.8,29.75,SW,225,3.7,-999.0,98,-99.99,,,0.00,Acu-Link.com,2013-07-22 11:09:00,
2013-07-22 06:25:00,68.4,67.8,29.73,South,180,8.9,-999.0,98,-99.99,,,0.00,Acu-Link.com,2013-07-22 11:25:00,
2013-07-22 06:40:00,68.5,67.9,29.73,South,180,8.3,-999.0,98,-99.99,,,0.00,Acu-Link.com,2013-07-22 11:40:00,
2013-07-22 06:55:00,68.4,67.8,29.73,South,180,6.8,-999.0,98,-99.99,,,0.00,Acu-Link.com,2013-07-22 11:55:00,
2013-07-22 07:10:00,68.7,68.1,29.74,South,180,5.8,-999.0,98,-99.99,,,0.00,Acu-Link.com,2013-07-22 12:10:00,
2013-07-22 07:26:00,68.9,68.3,29.74,SW,225,6.8,-999.0,98,-99.99,,,0.00,Acu-Link.com,2013-07-22 12:26:00,
2013-07-22 07:41:00,69.4,68.8,29.73,SE,135,8.3,-999.0,98,-99.99,,,0.00,Acu-Link.com,2013-07-22 12:41:00,
2013-07-22 07:56:00,70.0,69.4,29.72,SSE,157,6.3,-999.0,98,-99.99,,,0.00,Acu-Link.com,2013-07-22 12:56:00,
2013-07-22 08:11:00,70.3,69.7,29.72,SW,225,11.4,-999.0,98,-99.99,,,0.00,Acu-Link.com,2013-07-22 13:11:00,
2013-07-22 08:26:00,71.4,70.8,29.73,SSW,202,5.8,-999.0,98,-99.99,,,0.00,Acu-Link.com,2013-07-22 13:26:00,
2013-07-22 08:41:00,72.5,71.3,29.71,South,180,7.3,-999.0,96,-99.99,,,0.00,Acu-Link.com,2013-07-22 13:41:00,
2013-07-22 08:56:00,73.6,72.1,29.70,SSW,202,5.3,-999.0,95,-99.99,,,0.00,Acu-Link.com,2013-07-22 13:56:00,
2013-07-22 09:12:00,73.8,72.3,29.70,SSE,157,4.7,-999.0,95,-99.99,,,0.00,Acu-Link.com,2013-07-22 14:12:00,
2013-07-22 09:27:00,73.4,71.9,29.70,SSW,202,8.9,-999.0,95,-99.99,,,0.00,Acu-Link.com,2013-07-22 14:27:00,
2013-07-22 09:42:00,74.5,72.3,29.69,SSW,202,6.3,-999.0,93,-99.99,,,0.00,Acu-Link.com,2013-07-22 14:42:00,
2013-07-22 09:57:00,75.7,73.2,29.71,South,180,8.3,-999.0,92,-99.99,,,0.00,Acu-Link.com,2013-07-22 14:57:00,
2013-07-22 10:12:00,76.3,73.1,29.71,SSE,157,7.3,-999.0,90,-99.99,,,0.00,Acu-Link.com,2013-07-22 15:12:00,
2013-07-22 10:27:00,77.7,73.5,29.70,WSW,247,7.3,-999.0,87,-99.99,,,0.00,Acu-Link.com,2013-07-22 15:27:00,
2013-07-22 10:42:00,77.5,73.3,29.70,SSW,202,5.8,-999.0,87,-99.99,,,0.00,Acu-Link.com,2013-07-22 15:42:00,
2013-07-22 10:57:00,79.7,74.4,29.71,West,270,7.3,-999.0,84,-99.99,,,0.00,Acu-Link.com,2013-07-22 15:57:00,
2013-07-22 11:12:00,80.1,74.8,29.70,SW,225,4.7,-999.0,84,-99.99,,,0.00,Acu-Link.com,2013-07-22 16:12:00,
2013-07-22 11:27:00,80.8,75.1,29.71,SW,225,5.8,-999.0,83,-99.99,,,0.00,Acu-Link.com,2013-07-22 16:27:00,
2013-07-22 11:43:00,80.2,74.9,29.71,NNW,337,2.7,-999.0,84,-99.99,,,0.00,Acu-Link.com,2013-07-22 16:43:00,
2013-07-22 11:58:00,79.7,74.1,29.71,WNW,292,5.8,-999.0,83,-99.99,,,0.00,Acu-Link.com,2013-07-22 16:58:00,
2013-07-22 12:13:00,81.9,75.1,29.71,NW,315,6.3,-999.0,80,-99.99,,,0.00,Acu-Link.com,2013-07-22 17:13:00,
2013-07-22 12:29:00,81.5,74.3,29.70,North,0,6.8,-999.0,79,-99.99,,,0.00,Acu-Link.com,2013-07-22 17:29:00,
2013-07-22 12:44:00,81.0,75.0,29.71,WNW,292,5.8,-999.0,82,-99.99,,,0.00,Acu-Link.com,2013-07-22 17:44:00,
2013-07-22 12:59:00,81.7,74.5,29.71,NW,315,9.4,-999.0,79,-99.99,,,0.00,Acu-Link.com,2013-07-22 17:59:00,
2013-07-22 13:30:00,83.3,75.3,29.71,SW,225,9.4,-999.0,77,-99.99,,,0.00,Acu-Link.com,2013-07-22 18:30:00,
2013-07-22 13:45:00,85.8,75.3,29.70,WNW,292,10.4,-999.0,71,-99.99,,,0.00,Acu-Link.com,2013-07-22 18:45:00,
2013-07-22 14:00:00,82.0,74.1,29.70,WNW,292,5.8,-999.0,77,-99.99,,,0.00,Acu-Link.com,2013-07-22 19:00:00,
2013-07-22 14:15:00,83.5,73.1,29.70,North,0,11.4,-999.0,71,-99.99,,,0.00,Acu-Link.com,2013-07-22 19:15:00,
2013-07-22 14:30:00,84.4,71.8,29.71,NW,315,6.8,-999.0,66,-99.99,,,0.00,Acu-Link.com,2013-07-22 19:30:00,
2013-07-22 14:45:00,84.2,69.7,29.71,NNW,337,12.5,-999.0,62,-99.99,,,0.00,Acu-Link.com,2013-07-22 19:45:00,
2013-07-22 15:00:00,84.4,71.3,29.72,NNW,337,15.5,-999.0,65,-99.99,,,0.00,Acu-Link.com,2013-07-22 20:00:00,
2013-07-22 15:31:00,82.9,69.4,29.71,WNW,292,7.8,-999.0,64,-99.99,,,0.00,Acu-Link.com,2013-07-22 20:31:00,
2013-07-22 15:46:00,83.1,70.1,29.72,NW,315,11.9,-999.0,65,-99.99,,,0.00,Acu-Link.com,2013-07-22 20:46:00,
2013-07-22 16:01:00,83.3,68.4,29.73,NNW,337,10.4,-999.0,61,-99.99,,,0.00,Acu-Link.com,2013-07-22 21:01:00,
2013-07-22 16:16:00,83.3,67.9,29.73,NW,315,10.9,-999.0,60,-99.99,,,0.00,Acu-Link.com,2013-07-22 21:16:00,
2013-07-22 16:31:00,82.4,67.1,29.72,NNE,22,8.3,-999.0,60,-99.99,,,0.00,Acu-Link.com,2013-07-22 21:31:00,
2013-07-22 16:46:00,82.8,67.5,29.72,North,0,9.9,-999.0,60,-99.99,,,0.00,Acu-Link.com,2013-07-22 21:46:00,
2013-07-22 17:01:00,82.2,67.4,29.73,NNW,337,7.8,-999.0,61,-99.99,,,0.00,Acu-Link.com,2013-07-22 22:01:00,
2013-07-22 17:16:00,81.9,67.1,29.74,NW,315,11.4,-999.0,61,-99.99,,,0.00,Acu-Link.com,2013-07-22 22:16:00,
2013-07-22 17:31:00,81.3,67.5,29.74,NW,315,6.8,-999.0,63,-99.99,,,0.00,Acu-Link.com,2013-07-22 22:31:00,
2013-07-22 17:46:00,81.1,67.7,29.74,NW,315,11.9,-999.0,64,-99.99,,,0.00,Acu-Link.com,2013-07-22 22:46:00,
2013-07-22 18:01:00,79.2,66.8,29.74,NW,315,10.4,-999.0,66,-99.99,,,0.00,Acu-Link.com,2013-07-22 23:01:00,
2013-07-22 18:17:00,79.5,66.7,29.75,NNE,22,10.4,-999.0,65,-99.99,,,0.00,Acu-Link.com,2013-07-22 23:17:00,
2013-07-22 18:32:00,79.7,66.4,29.75,NNW,337,6.8,-999.0,64,-99.99,,,0.00,Acu-Link.com,2013-07-22 23:32:00,
2013-07-22 18:47:00,77.5,66.1,29.77,NNW,337,12.5,-999.0,68,-99.99,,,0.00,Acu-Link.com,2013-07-22 23:47:00,
2013-07-22 19:02:00,78.6,65.8,29.76,NW,315,9.4,-999.0,65,-99.99,,,0.00,Acu-Link.com,2013-07-23 00:02:00,
2013-07-22 19:17:00,77.5,64.8,29.77,NNW,337,16.1,-999.0,65,-99.99,,,0.00,Acu-Link.com,2013-07-23 00:17:00,
2013-07-22 19:33:00,76.6,64.4,29.78,NNE,22,14.5,-999.0,66,-99.99,,,0.00,Acu-Link.com,2013-07-23 00:33:00,
2013-07-22 19:48:00,75.7,63.5,29.79,NW,315,13.5,-999.0,66,-99.99,,,0.00,Acu-Link.com,2013-07-23 00:48:00,
2013-07-22 20:03:00,74.5,63.6,29.80,NNE,22,8.9,-999.0,69,-99.99,,,0.00,Acu-Link.com,2013-07-23 01:03:00,
2013-07-22 20:18:00,73.4,63.0,29.81,NNW,337,11.4,-999.0,70,-99.99,,,0.00,Acu-Link.com,2013-07-23 01:18:00,
2013-07-22 20:33:00,72.3,62.0,29.82,NNW,337,4.7,-999.0,70,-99.99,,,0.00,Acu-Link.com,2013-07-23 01:33:00,
2013-07-22 20:48:00,70.9,62.2,29.82,NNW,337,5.8,-999.0,74,-99.99,,,0.00,Acu-Link.com,2013-07-23 01:48:00,
2013-07-22 21:03:00,70.2,61.9,29.83,NNW,337,4.7,-999.0,75,-99.99,,,0.00,Acu-Link.com,2013-07-23 02:03:00,
2013-07-22 21:19:00,69.3,61.8,29.83,WNW,292,4.7,-999.0,77,-99.99,,,0.00,Acu-Link.com,2013-07-23 02:19:00,
2013-07-22 21:34:00,69.1,61.9,29.84,NW,315,5.3,-999.0,78,-99.99,,,0.00,Acu-Link.com,2013-07-23 02:34:00,
2013-07-22 21:49:00,68.9,61.7,29.85,NW,315,5.8,-999.0,78,-99.99,,,0.00,Acu-Link.com,2013-07-23 02:49:00,
2013-07-22 22:05:00,68.4,61.6,29.85,NW,315,4.7,-999.0,79,-99.99,,,0.00,Acu-Link.com,2013-07-23 03:05:00,
2013-07-22 22:20:00,67.8,61.7,29.85,NNW,337,4.2,-999.0,81,-99.99,,,0.00,Acu-Link.com,2013-07-23 03:20:00,
2013-07-22 22:35:00,67.3,61.6,29.86,NNW,337,2.7,-999.0,82,-99.99,,,0.00,Acu-Link.com,2013-07-23 03:35:00,
2013-07-22 22:50:00,67.3,61.6,29.87,NNW,337,4.7,-999.0,82,-99.99,,,0.00,Acu-Link.com,2013-07-23 03:50:00,
2013-07-22 23:05:00,66.7,61.4,29.87,NW,315,4.2,-999.0,83,-99.99,,,0.00,Acu-Link.com,2013-07-23 04:05:00,
2013-07-22 23:20:00,66.4,61.4,29.87,NW,315,4.2,-999.0,84,-99.99,,,0.00,Acu-Link.com,2013-07-23 04:20:00,
2013-07-22 23:36:00,66.2,61.2,29.88,NNW,337,3.7,-999.0,84,-99.99,,,0.00,Acu-Link.com,2013-07-23 04:36:00,
2013-07-22 23:51:00,66.4,61.1,29.90,North,0,3.2,-999.0,83,-99.99,,,0.00,Acu-Link.com,2013-07-23 04:51:00,